ON7XX-13 Weather Reports


time (UTC)temp
C
wind
direction
speed
KPH
gust
KPH
rain 1hr
cm
rain 24hr
cm
rain mn
cm
humidity
%
barometer
mb
20260507183636 14 0.0 0.0 0.00 0.00 0.00 74 1017.7
20260507182619 14 0.0 0.0 0.00 0.00 0.00 73 1017.6
20260507181605 15 0.0 0.0 0.00 0.00 0.00 73 1017.6
20260507180551 15 0.0 0.0 0.00 0.00 0.00 72 1017.6
20260507175536 15 0.0 0.0 0.00 0.00 0.00 72 1017.7
20260507174522 15 0.0 0.0 0.00 0.00 0.00 71 1017.7
20260507173508 15 0.0 0.0 0.00 0.00 0.00 70 1017.6
20260507171439 15 0.0 0.0 0.00 0.00 0.00 71 1017.7
20260507170425 15 0.0 0.0 0.00 0.00 0.00 71 1017.7
20260507165410 15 0.0 0.0 0.00 0.00 0.00 70 1017.6
20260507164356 15 0.0 0.0 0.00 0.00 0.00 70 1017.7
20260507163342 15 0.0 0.0 0.00 0.00 0.00 70 1017.7
20260507162328 15 0.0 0.0 0.00 0.00 0.00 70 1017.7
20260507161313 15 0.0 0.0 0.00 0.00 0.00 69 1017.7
20260507160257 15 0.0 0.0 0.00 0.00 0.00 70 1017.7
20260507155242 15 0.0 0.0 0.00 0.00 0.00 71 1017.7
20260507154228 15 0.0 0.0 0.00 0.00 0.00 71 1017.6
20260507153214 15 0.0 0.0 0.00 0.00 0.00 70 1017.7
20260507152200 15 0.0 0.0 0.00 0.00 0.00 70 1017.7
20260507151146 15 0.0 0.0 0.00 0.00 0.00 69 1017.7
20260507150131 15 0.0 0.0 0.00 0.00 0.00 69 1017.7
20260507145117 15 0.0 0.0 0.00 0.00 0.00 67 1017.7
20260507144103 15 0.0 0.0 0.00 0.00 0.00 65 1017.6
20260507143049 15 0.0 0.0 0.00 0.00 0.00 66 1017.6
20260507142035 15 0.0 0.0 0.00 0.00 0.00 66 1017.7
20260507141021 15 0.0 0.0 0.00 0.00 0.00 67 1017.8
20260507140006 15 0.0 0.0 0.00 0.00 0.00 64 1017.8
20260507134952 15 0.0 0.0 0.00 0.00 0.00 64 1017.8
20260507133938 15 0.0 0.0 0.00 0.00 0.00 65 1017.8
20260507132924 15 0.0 0.0 0.00 0.00 0.00 63 1017.8
20260507131909 15 0.0 0.0 0.00 0.00 0.00 65 1017.8
20260507130825 15 0.0 0.0 0.00 0.00 0.00 64 1017.8
20260507125811 15 0.0 0.0 0.00 0.00 0.00 65 1017.9
20260507124757 15 0.0 0.0 0.00 0.00 0.00 64 1017.9
20260507123742 15 0.0 0.0 0.00 0.00 0.00 66 1017.9
20260507122728 15 0.0 0.0 0.00 0.00 0.00 67 1017.8
20260507121714 15 0.0 0.0 0.00 0.00 0.00 68 1017.9
20260507120700 15 0.0 0.0 0.00 0.00 0.00 67 1017.9
20260507115646 15 0.0 0.0 0.00 0.00 0.00 67 1017.9
20260507114632 15 0.0 0.0 0.00 0.00 0.00 68 1017.9
20260507113618 15 0.0 0.0 0.00 0.00 0.00 68 1017.8
20260507112603 15 0.0 0.0 0.00 0.00 0.00 70 1017.8
20260507111549 15 0.0 0.0 0.00 0.00 0.00 69 1017.8
20260507110535 15 0.0 0.0 0.00 0.00 0.00 71 1017.9
20260507105521 15 0.0 0.0 0.00 0.00 0.00 72 1017.9
20260507104506 15 0.0 0.0 0.00 0.00 0.00 68 1018.0
20260507103452 15 0.0 0.0 0.00 0.00 0.00 68 1018.0
20260507102438 15 0.0 0.0 0.00 0.00 0.00 73 1018.0
20260507101424 15 0.0 0.0 0.00 0.00 0.00 75 1018.0
20260507100409 15 0.0 0.0 0.00 0.00 0.00 75 1017.9
20260507095355 14 0.0 0.0 0.00 0.00 0.00 74 1017.8
20260507094341 14 0.0 0.0 0.00 0.00 0.00 76 1017.8
20260507093327 14 0.0 0.0 0.00 0.00 0.00 77 1017.8
20260507092313 14 0.0 0.0 0.00 0.00 0.00 83 1017.7
20260507091258 13 0.0 0.0 0.00 0.00 0.00 83 1017.6
20260507090244 13 0.0 0.0 0.00 0.00 0.00 85 1017.6
20260507085230 13 0.0 0.0 0.00 0.00 0.00 88 1017.5
20260507084216 13 0.0 0.0 0.00 0.00 0.00 90 1017.5
20260507083201 13 0.0 0.0 0.00 0.00 0.00 92 1017.5
20260507082147 13 0.0 0.0 0.00 0.00 0.00 93 1017.5
20260507081133 12 0.0 0.0 0.00 0.00 0.00 94 1017.4
20260507080119 12 0.0 0.0 0.00 0.00 0.00 94 1017.4
20260507075104 12 0.0 0.0 0.00 0.00 0.00 96 1017.3
20260507074050 12 0.0 0.0 0.00 0.00 0.00 96 1017.3
20260507073035 12 0.0 0.0 0.00 0.00 0.00 97 1017.2
20260507072021 11 0.0 0.0 0.00 0.00 0.00 97 1017.2
20260507071007 11 0.0 0.0 0.00 0.00 0.00 97 1017.1
20260507065954 11 0.0 0.0 0.00 0.00 0.00 96 1017.0
20260507064939 11 0.0 0.0 0.00 0.00 0.00 96 1017.0
20260507063924 11 0.0 0.0 0.00 0.00 0.00 96 1016.9
20260507062910 11 0.0 0.0 0.00 0.00 0.00 96 1016.8
20260507061856 11 0.0 0.0 0.00 0.00 0.00 96 1016.8
20260507060842 11 0.0 0.0 0.00 0.00 0.00 95 1016.8
20260507055827 11 0.0 0.0 0.00 0.00 0.00 95 1016.7
20260507054813 10 0.0 0.0 0.00 0.00 0.00 94 1016.6
20260507053758 10 0.0 0.0 0.00 0.00 0.00 94 1016.5
20260507052744 10 0.0 0.0 0.00 0.00 0.00 93 1016.4
20260507051729 10 0.0 0.0 0.00 0.00 0.00 93 1016.3
20260507050715 10 0.0 0.0 0.00 0.00 0.00 93 1016.3
20260507045701 10 0.0 0.0 0.00 0.00 0.00 93 1016.1
20260507044647 10 0.0 0.0 0.00 0.00 0.00 94 1016.1
20260507043633 10 0.0 0.0 0.00 0.00 0.00 94 1016.0
20260507042618 10 0.0 0.0 0.00 0.00 0.00 93 1016.0
20260507041604 10 0.0 0.0 0.00 0.00 0.00 92 1016.0
20260507040550 10 0.0 0.0 0.00 0.00 0.00 93 1016.0
20260507035536 10 0.0 0.0 0.00 0.00 0.00 92 1015.9
20260507034521 10 0.0 0.0 0.00 0.00 0.00 92 1015.8
20260507033507 10 0.0 0.0 0.00 0.00 0.00 93 1015.7
20260507032453 10 0.0 0.0 0.00 0.00 0.00 92 1015.7
20260507031438 10 0.0 0.0 0.00 0.00 0.00 92 1015.6
20260507030424 10 0.0 0.0 0.00 0.00 0.00 91 1015.6
20260507025410 10 0.0 0.0 0.00 0.00 0.00 92 1015.5
20260507024355 10 0.0 0.0 0.00 0.00 0.00 91 1015.5
20260507023341 10 0.0 0.0 0.00 0.00 0.00 91 1015.5
20260507022327 10 0.0 0.0 0.00 0.00 0.00 91 1015.6
20260507021313 10 0.0 0.0 0.00 0.00 0.00 91 1015.5
20260507020259 10 0.0 0.0 0.00 0.00 0.00 90 1015.4
20260507015244 10 0.0 0.0 0.00 0.00 0.00 90 1015.4
20260507014230 10 0.0 0.0 0.00 0.00 0.00 90 1015.3
20260507013216 10 0.0 0.0 0.00 0.00 0.00 89 1015.3
20260507012202 10 0.0 0.0 0.00 0.00 0.00 89 1015.3
20260507011147 10 0.0 0.0 0.00 0.00 0.00 89 1015.3
20260507010133 10 0.0 0.0 0.00 0.00 0.00 89 1015.3
20260507005119 10 0.0 0.0 0.00 0.00 0.00 89 1015.2
20260507004105 10 0.0 0.0 0.00 0.00 0.00 89 1015.2
20260507003051 10 0.0 0.0 0.00 0.00 0.00 88 1015.3
20260507002036 10 0.0 0.0 0.00 0.00 0.00 89 1015.3
20260507001022 10 0.0 0.0 0.00 0.00 0.00 88 1015.2
20260507000008 10 0.0 0.0 0.00 0.00 0.00 88 1015.3
20260506234954 10 0.0 0.0 0.00 0.00 0.00 88 1015.2
20260506233940 10 0.0 0.0 0.00 0.00 0.00 87 1015.2
20260506232925 10 0.0 0.0 0.00 0.00 0.00 88 1015.1
20260506231911 10 0.0 0.0 0.00 0.00 0.00 88 1015.0
20260506230857 10 0.0 0.0 0.00 0.00 0.00 87 1015.0
20260506225843 10 0.0 0.0 0.00 0.00 0.00 86 1015.0
20260506224829 11 0.0 0.0 0.00 0.00 0.00 86 1014.9
20260506223815 11 0.0 0.0 0.00 0.00 0.00 85 1014.9
20260506222801 11 0.0 0.0 0.00 0.00 0.00 85 1014.9
20260506221747 11 0.0 0.0 0.00 0.00 0.00 85 1014.9
20260506220732 11 0.0 0.0 0.00 0.00 0.00 84 1014.9
20260506215718 11 0.0 0.0 0.00 0.00 0.00 85 1014.8
20260506214704 11 0.0 0.0 0.00 0.00 0.00 85 1014.8
20260506213650 11 0.0 0.0 0.00 0.00 0.00 85 1014.8
20260506212636 11 0.0 0.0 0.00 0.00 0.00 84 1014.7
20260506211622 11 0.0 0.0 0.00 0.00 0.00 84 1014.7
20260506210607 11 0.0 0.0 0.00 0.00 0.00 83 1014.6
20260506205553 11 0.0 0.0 0.00 0.00 0.00 82 1014.6
20260506204539 11 0.0 0.0 0.00 0.00 0.00 82 1014.5
20260506203525 11 0.0 0.0 0.00 0.00 0.00 82 1014.4
20260506202511 11 0.0 0.0 0.00 0.00 0.00 81 1014.4
20260506201456 11 0.0 0.0 0.00 0.00 0.00 81 1014.3
20260506200442 12 0.0 0.0 0.00 0.00 0.00 79 1014.3
20260506195428 12 0.0 0.0 0.00 0.00 0.00 77 1014.2
20260506194413 12 0.0 0.0 0.00 0.00 0.00 76 1014.1
20260506193359 12 0.0 0.0 0.00 0.00 0.00 76 1014.0
20260506192345 12 0.0 0.0 0.00 0.00 0.00 75 1014.0
20260506191331 13 0.0 0.0 0.00 0.00 0.00 74 1013.8
20260506190317 13 0.0 0.0 0.00 0.00 0.00 73 1013.7
20260506185306 13 0.0 0.0 0.00 0.00 0.00 71 1013.5
20260506184248 13 0.0 0.0 0.00 0.00 0.00 71 1013.5